Flag for U.S.A. Weather past 2 weeks in Irving, Texas, U.S.A.

Now
73 °F

Overcast.


Feels Like: 77 °F
Forecast: 62 / 75 °F
Wind: 7 mph from Southeast

Location: Dallas / Fort Worth International Airport


UV Index: 0 (Low)

Visibility: 10 mi


Pressure: 30.01 "Hg

Humidity: 51%

Dew point: 54 °F

Location of IrvingLocation

Historic Weather in Irving

°F

Irving temperature yesterday

Maximum temperature yesterday: 77 °F (at 1:53 PM)
Minimum temperature yesterday: 55 °F (at 4:53 AM)
Average temperature yesterday: 67 °F

Past Weeks' High & Low Weather Summary

 TemperatureHumidityPressure
High85 °F (Apr 10, 4:53 PM)93% (Apr 6, 4:53 PM)30.32 "Hg (Apr 6, 4:53 PM)
Low37 °F (Apr 15, 5:53 AM)17% (Apr 15, 4:53 PM)29.54 "Hg (Apr 13, 7:53 PM)
Average62 °F60%29.99 "Hg
* Reported Apr 5 5:53 PM — Apr 20 5:53 PM, Irving, Weather by CustomWeather, © 2014

Note: Actual official high and low records may vary slightly from our data, if they occured in-between our weather recording intervals... More about our weather records

Advertising

Historic Weather Conditions — Data for Previous 24 hours

 ConditionsComfort  
Time TempWeatherWind HumidityBarometerVisibility
5:53 PM
Apr 20
73 °FOvercast.7 mph51%30.01 "Hg10 mi
4:53 PM74 °FMore clouds than sun.13 mph48%30.02 "Hg10 mi
3:53 PM75 °FMostly cloudy.16 mph43%30.03 "Hg10 mi
2:53 PM76 °FMostly cloudy.23 mph45%30.04 "Hg10 mi
1:53 PM80 °FBroken clouds.17 mph36%30.06 "Hg10 mi
12:53 PM79 °FCloudy.20 mph39%30.09 "Hg10 mi
11:53 AM77 °FBroken clouds.21 mph44%30.10 "Hg10 mi
10:53 AM75 °FPartly sunny.13 mph50%30.10 "Hg10 mi
9:53 AM70 °FMostly cloudy.12 mph61%30.07 "Hg10 mi
8:53 AM68 °FMore clouds than sun.8 mph65%30.10 "Hg10 mi
7:53 AM65 °FMore clouds than sun.12 mph70%30.10 "Hg10 mi
6:53 AM65 °FOvercast.18 mph73%30.04 "Hg10 mi
5:53 AM65 °FPassing clouds.10 mph70%30.06 "Hg10 mi
4:53 AM66 °FPartly cloudy.12 mph65%30.06 "Hg10 mi
3:53 AM64 °FMostly cloudy.9 mph70%30.05 "Hg10 mi
2:53 AM63 °FMostly cloudy.6 mph73%30.07 "Hg10 mi
1:53 AM63 °FMostly cloudy.6 mph70%30.10 "Hg10 mi
12:53 AM63 °FPassing clouds.5 mph70%30.10 "Hg10 mi
11:53 PM
Apr 19
65 °FPassing clouds.7 mph66%30.09 "Hg10 mi
10:53 PM67 °FPassing clouds.8 mph61%30.10 "Hg10 mi
9:53 PM65 °FPassing clouds.7 mph63%30.07 "Hg10 mi
8:53 PM67 °FBroken clouds.8 mph59%30.06 "Hg10 mi
7:53 PM72 °FBroken clouds.9 mph49%30.06 "Hg10 mi
6:53 PM74 °FMostly cloudy.12 mph46%30.06 "Hg10 mi
Weather by CustomWeather, © 2014

See weather overview